Location: Bald Rock
(37.3738°N, 119.9354°W)
Time: 21:13:02
(UTC+00:00)

JB-3 - Pass Details

Date: 08 September 2024
Orbit: 504 x 557 km, 97.2° (Epoch: 12 October)

Event Time Altitude Azimuth Distance (km) Brightness Sun altitude
Rises 12:45:18 0° 171° (S) 2,626 7.7 -10.8°
Reaches altitude 10° 12:47:22 10° 172° (S) 1,752 6.8 -10.4°
Maximum altitude 12:51:09 76° 258° (WSW) 549 4.1 -9.7°
Drops below altitude 10° 12:55:02 10° 345° (NNW) 1,800 6.9 -8.9°
Sets 12:57:11 0° 347° (NNW) 2,705 7.9 -8.5°
